Theta_e
281 282 282 284 284 284 285 284 282 280 281 285 286 291 291 293 295 295 296 299 301 308 310 326 326 324 325 325 325 323 322 321 320 319 318 317 318 317
282 282 282 283 284 284 284 284 284 283 281 285 286 288 290 292 294 294 295 296 300 306 310 318 323 322 322 322 322 321 320 320 320 319 317 317 318 317
281 281 282 283 283 283 283 284 283 284 281 284 287 288 288 288 291 294 294 295 299 305 308 312 320 320 320 320 319 319 318 319 318 318 318 317 317 315
281 281 281 284 282 283 283 283 283 283 283 281 284 286 286 288 289 290 294 297 301 305 307 310 319 319 319 318 317 316 316 316 315 315 316 317 316 315
281 281 281 281 281 282 282 282 283 284 284 283 282 285 286 287 287 290 292 294 302 303 305 310 318 318 317 317 315 314 313 313 313 312 313 314 314 312
281 281 281 281 281 281 281 281 282 281 282 282 282 283 284 286 287 287 288 292 293 299 303 305 312 316 316 316 313 311 310 311 312 311 311 310 310 311
280 281 281 283 285 285 283 281 281 281 281 281 281 282 282 283 284 286 287 289 291 297 301 306 311 318 316 313 310 309 309 310 310 310 311 309 309 309
280 280 281 284 284 287 288 289 287 281 280 280 280 280 281 283 285 286 287 287 287 299 293 296 303 315 317 316 311 309 309 309 309 309 309 308 307 308
281 281 281 282 284 283 285 287 288 289 289 286 283 282 281 283 285 284 285 287 286 289 289 292 299 311 317 315 309 308 309 308 308 308 307 307 306 307
283 282 281 281 282 282 282 281 282 283 284 284 283 284 286 288 287 286 286 287 288 289 291 290 299 299 315 315 308 308 308 308 307 307 307 306 305 305
282 282 281 281 284 286 283 281 281 282 286 288 288 288 288 289 289 287 286 285 284 287 295 294 299 300 313 312 309 307 307 307 307 306 306 305 304 304
281 281 284 283 285 286 282 281 280 281 283 283 283 285 287 286 289 288 287 285 285 285 291 291 296 297 302 311 309 308 307 306 306 306 305 305 304 303
280 280 281 284 285 286 286 283 282 283 283 282 282 282 283 283 283 285 288 288 286 285 290 287 287 291 291 304 307 308 308 306 306 306 305 304 304 303
281 280 281 284 285 285 285 286 287 287 284 283 281 281 282 282 283 284 286 287 289 287 289 285 285 286 286 288 303 306 307 306 307 305 304 304 304 303
281 282 285 285 285 285 286 286 286 283 282 282 281 282 282 283 284 284 286 287 288 288 289 287 285 285 286 287 289 303 303 304 306 304 304 303 302 301
282 281 282 283 285 284 284 284 284 283 283 281 281 281 282 282 283 283 283 284 284 284 286 286 286 285 285 288 290 297 305 300 304 304 303 303 303 302
282 280 279 279 279 279 280 281 283 283 282 282 281 281 281 282 283 284 284 283 283 283 284 285 286 286 287 290 290 298 305 303 304 303 302 300 301 301
281 279 278 279 278 278 279 279 280 281 281 281 280 281 281 281 282 283 284 283 283 283 284 285 285 285 287 291 294 297 304 303 303 303 302 298 297 301
279 279 278 279 280 279 279 279 279 280 281 281 280 280 280 281 282 282 283 283 282 283 284 285 285 285 284 285 292 296 303 302 302 300 301 299 297 298
278 277 277 278 279 280 280 279 280 280 280 280 280 281 280 281 281 282 283 282 283 283 284 285 285 285 285 287 288 302 300 303 301 299 299 300 298 297
278 278 279 279 279 280 281 281 281 280 280 280 280 281 281 281 281 282 283 284 284 283 282 283 285 289 286 287 287 298 301 300 304 302 300 298 295 294
278 278 279 279 280 280 280 281 281 281 281 281 281 281 282 282 282 282 282 282 283 283 283 284 285 285 285 285 288 298 299 300 297 299 300 300 296 292
279 279 279 279 280 280 280 280 280 281 281 281 281 282 282 281 281 283 282 283 283 283 284 284 284 284 285 285 288 288 293 297 298 298 298 294 295 295
Wind_Speed
6 6 5 4 4 4 4 3 3 6 6 3 4 4 9 9 13 13 14 22 28 23 23 28 29 32 31 31 30 29 28 25 24 23 23 20 20 17
5 6 6 5 5 4 4 4 4 6 8 3 5 10 9 9 12 12 14 22 24 25 22 24 35 32 32 31 31 29 28 27 25 25 24 22 21 19
6 6 8 6 6 6 5 5 6 4 10 10 9 8 10 11 10 10 13 13 12 23 24 27 33 34 33 32 32 31 28 28 26 25 24 23 22 20
8 7 8 7 7 7 6 7 7 6 7 13 11 8 10 9 10 13 10 10 11 16 29 22 36 36 34 34 32 33 29 28 27 26 24 23 22 22
10 10 11 8 9 7 7 7 7 6 7 7 10 8 7 7 10 10 11 13 9 16 19 28 33 37 35 36 36 34 31 28 27 24 23 23 23 23
9 9 10 11 10 8 8 8 7 6 6 7 7 8 6 7 6 9 9 8 10 10 12 13 17 37 38 36 37 35 33 30 28 25 21 21 21 21
11 11 11 13 19 16 8 8 8 7 6 6 6 7 7 7 7 7 9 9 10 6 6 6 9 20 23 34 31 36 36 31 30 26 24 23 23 20
12 12 11 18 17 23 23 23 15 9 10 8 8 9 10 7 6 6 7 8 6 5 11 8 7 14 21 21 34 36 36 34 30 27 25 25 24 20
12 12 10 10 16 10 16 22 22 23 23 12 11 9 11 8 7 9 8 7 8 9 9 10 4 9 18 20 36 37 38 37 31 27 27 27 25 22
13 12 11 12 10 11 10 9 11 11 13 10 10 9 7 7 8 9 10 10 8 7 6 8 2 8 14 18 38 38 37 38 34 28 27 27 26 24
11 11 10 12 17 22 15 14 13 13 15 23 23 23 24 23 18 9 8 7 7 5 3 9 2 5 10 17 21 38 38 38 38 31 28 28 26 25
9 11 22 20 23 24 15 13 13 13 9 9 10 14 18 14 20 12 7 10 6 3 5 5 3 2 6 13 20 19 20 38 38 36 30 29 28 14
9 9 9 23 25 26 24 13 15 12 13 11 9 9 8 9 7 8 8 6 6 7 4 2 2 2 3 4 17 20 20 19 20 25 33 31 30 21
10 10 12 23 24 24 19 22 25 21 9 8 9 9 9 8 8 8 10 9 9 10 5 3 2 2 2 7 14 17 18 18 18 19 18 24 30 26
8 11 17 21 24 21 25 25 23 10 8 8 9 8 8 8 9 7 8 9 10 12 10 9 7 4 4 4 7 15 21 18 17 18 16 17 18 16
16 12 13 16 18 15 14 15 10 8 7 8 8 7 5 6 7 7 8 7 7 7 11 9 8 7 7 8 8 11 19 15 17 18 16 16 16 15
15 9 8 8 8 7 7 7 5 7 8 7 7 7 7 8 9 8 8 7 9 8 8 7 9 10 10 12 10 14 19 16 18 18 18 15 15 16
10 7 7 8 9 9 9 8 7 10 8 7 8 8 9 9 9 9 9 9 9 8 8 5 4 3 5 11 21 13 17 17 18 20 18 15 14 15
6 6 7 6 7 8 9 9 9 9 9 8 9 8 9 8 11 9 8 9 9 9 9 5 5 5 5 6 5 30 18 17 19 17 17 17 16 15
5 6 7 7 7 8 8 9 9 8 8 9 9 9 9 8 8 9 8 9 8 4 2 4 5 6 5 5 5 12 22 20 20 20 16 11 9 13
6 6 6 7 7 6 7 8 10 9 9 8 8 8 8 8 8 7 7 14 13 7 7 6 3 6 4 7 7 11 13 26 29 24 20 16 16 12
6 6 6 5 5 6 6 6 8 9 8 8 8 8 8 8 8 8 8 8 7 7 6 3 3 3 3 6 8 15 13 12 10 22 33 31 21 16
7 6 5 5 5 5 5 6 6 6 8 8 7 7 8 8 8 7 8 8 7 6 6 5 2 2 2 5 6 2 10 15 12 14 13 8 15 19
Wind_Direction
258 265 259 256 253 246 256 234 245 310 308 301 300 4 339 334 332 329 325 320 316 313 310 239 186 178 176 174 168 172 167 170 165 162 165 168 161 159
241 240 251 251 256 251 247 243 218 249 267 285 299 308 316 319 325 324 315 313 309 304 311 269 184 178 173 174 164 169 167 166 165 166 168 170 162 156
251 235 247 245 255 257 245 245 256 237 267 283 287 303 306 310 318 315 309 306 305 298 316 323 175 173 171 171 164 165 167 166 165 169 170 170 163 156
247 245 246 247 240 241 246 248 239 246 262 279 287 294 293 298 306 309 306 301 295 297 315 300 183 171 170 167 163 161 165 168 165 169 171 167 163 165
241 241 251 234 239 241 236 248 251 252 256 266 284 290 289 299 304 303 312 305 302 313 317 311 182 169 169 168 162 162 163 166 165 171 170 165 163 168
241 235 242 241 243 234 232 242 249 249 257 261 272 287 288 294 288 305 309 315 310 321 310 307 261 171 169 169 165 163 161 163 165 168 165 161 157 165
250 246 244 243 252 247 240 234 236 247 255 261 267 277 282 291 292 306 302 316 309 280 309 320 318 177 170 168 167 163 160 162 165 168 165 155 154 166
253 249 241 252 261 265 262 258 235 222 241 243 252 254 267 271 279 287 307 317 315 36 350 321 340 240 167 170 170 166 161 160 164 166 167 157 158 163
247 247 244 242 255 252 261 263 260 260 260 258 252 243 256 253 257 277 283 287 290 309 333 296 304 276 175 168 170 168 164 159 166 166 166 159 162 161
262 253 236 244 238 245 254 249 244 242 251 258 262 256 252 265 249 257 266 274 268 261 249 262 301 276 214 162 171 168 166 162 163 164 164 163 164 161
258 253 239 245 246 255 256 255 256 248 249 255 254 251 254 256 256 256 258 250 274 275 227 265 263 288 230 160 171 171 168 163 161 166 166 165 165 157
253 247 252 254 250 252 252 251 253 251 243 241 250 262 268 266 264 258 240 258 226 272 209 247 347 348 258 174 169 171 169 167 166 165 167 166 166 162
246 245 239 249 258 262 257 244 242 250 250 245 236 243 242 241 243 243 243 224 229 234 252 47 313 337 329 204 170 172 170 169 166 168 165 168 172 169
248 233 232 240 248 255 255 255 255 251 244 229 233 237 232 231 230 223 229 232 227 242 247 161 250 8 328 297 174 166 173 171 171 172 174 172 174 171
262 259 247 243 249 251 253 250 250 247 237 241 244 240 230 231 225 222 228 231 234 235 232 230 232 241 234 245 311 177 168 174 171 170 174 175 175 174
274 272 267 268 259 246 239 247 246 237 227 228 235 239 213 222 223 211 227 225 234 235 232 209 201 203 247 240 243 256 173 172 172 170 170 175 179 179
257 250 246 243 245 248 248 240 230 236 239 230 231 229 228 226 227 213 218 226 234 227 228 208 211 214 224 239 248 246 177 165 172 166 167 171 181 179
282 259 244 228 228 231 233 233 225 237 232 229 229 230 234 235 233 221 215 221 232 221 226 207 181 201 234 249 219 241 178 163 169 166 168 168 174 182
283 266 258 243 228 224 227 227 229 225 225 224 225 227 225 228 238 225 214 218 224 233 233 200 188 203 228 258 263 208 178 161 161 165 173 177 175 180
275 265 263 257 250 237 228 226 227 226 219 220 225 225 220 218 219 227 207 216 226 238 213 190 187 208 220 247 245 192 189 164 169 166 170 165 148 142
288 282 260 252 250 249 242 227 221 223 221 221 222 219 216 214 217 215 210 212 221 222 226 232 219 247 289 303 261 172 186 179 172 169 164 163 160 158
284 277 271 272 271 249 244 257 219 220 224 218 218 217 215 211 213 212 208 212 225 218 228 209 192 223 224 255 273 170 170 175 148 178 173 167 172 175
293 287 276 270 263 263 265 244 243 231 215 212 214 215 214 210 209 206 203 207 210 199 196 195 199 163 208 265 290 131 154 162 162 164 175 82 128 120